Grand Island, NE

9:51 PM CDT on August 18, 2017 (GMT -0500)
Central Nebraska Regional

Weather History for KGRI - April, 2013

Change the Weather History Date:

Thursday, April 11, 2013

  Actual Average Record
Temperature  
Mean Temperature 29 °F 49 °F  
Max Temperature 33 °F 62 °F 90 °F (1996)
Min Temperature 25 °F 36 °F 18 °F (1990)
Degree Days  
Heating Degree Days 36 16  
Month to date heating degree days 220 198  
Since 1 July heating degree days 5577 5755  
Cooling Degree Days 0 0  
Month to date cooling degree days 0 0  
Year to date cooling degree days 0 0  
Moisture  
Dew Point 25 °F    
Average Humidity 85    
Maximum Humidity 100    
Minimum Humidity 69    
Precipitation  
Precipitation 0.01 in 0.08 in 1.85 in (2001)
Month to date precipitation 2.10 0.78  
Year to date precipitation 4.87 3.79  
Snow  
Snow 0.00 in 0.00 in 7.00 in (1920)
Month to date snowfall 2.8 0.9  
Since 1 July snowfall 30.4 28.4  
Snow Depth 1.00 in    
Sea Level Pressure  
Sea Level Pressure 29.79 in    
Wind  
Wind Speed 18 mph (WNW)    
Max Wind Speed 26 mph    
Max Gust Speed 32 mph    
Visibility 7 miles    
Events Snow    
T = Trace of Precipitation, MM = Missing Value Source: NWS Daily Summary

Daily Weather History Graph

Daily Weather History Graph

Search for Another Location

Airport or City:

Trip Planner

Search our weather history database for the weather conditions in past years. The results will help you decide how hot, cold, wet, or windy it might be!

Date:

Astronomy

Apr. 11, 2013 Rise Set
Actual Time 6:59 AM CDT 8:09 PM CDT
Civil Twilight 6:31 AM CDT 8:37 PM CDT
Nautical Twilight 5:58 AM CDT 9:11 PM CDT
Astronomical Twilight 5:22 AM CDT 9:46 PM CDT
Moon 7:31 AM CDT (4/11) 9:45 PM CDT (4/11)
Length of Visible Light 14h 05m
Length of Day
13h 09m
New Moon, 2% of the Moon is Illuminated
Apr 11
New Moon
Apr 18
First Quarter
Apr 25
Full
May 2
Last Quarter
May 9
New

Hourly Weather History & Observations

Time (CDT) Temp. Windchill Dew Point Humidity Pressure Visibility Wind Dir Wind Speed Gust Speed Precip Events Conditions
12:13 AM 28.4 °F 18.5 °F 26.6 °F 93% 29.88 in 3.0 mi WNW 11.5 mph - 0.00 in Snow Light Snow
12:53 AM 27.0 °F 16.1 °F 26.1 °F 96% 29.93 in 5.0 mi WNW 12.7 mph - 0.00 in Snow Light Snow
1:34 AM 26.6 °F 15.2 °F 24.8 °F 93% 29.85 in 9.0 mi WNW 13.8 mph - 0.00 in   Overcast
1:53 AM 27.0 °F 15.6 °F 25.0 °F 92% 29.91 in 10.0 mi WNW 13.8 mph - 0.00 in   Overcast
2:53 AM 27.0 °F 15.6 °F 24.1 °F 89% 29.86 in 10.0 mi WNW 13.8 mph - N/A   Mostly Cloudy
3:53 AM 26.1 °F 14.5 °F 23.0 °F 88% 29.82 in 10.0 mi WNW 13.8 mph - N/A   Clear
4:53 AM 25.0 °F 13.6 °F 21.9 °F 88% 29.80 in 10.0 mi WNW 12.7 mph - N/A   Clear
5:53 AM 25.0 °F 12.6 °F 21.9 °F 88% 29.78 in 10.0 mi WNW 15.0 mph - N/A   Clear
6:53 AM 25.0 °F 13.6 °F 21.0 °F 85% 29.80 in 10.0 mi WNW 12.7 mph - N/A   Scattered Clouds
7:04 AM 24.8 °F 12.9 °F 21.2 °F 86% 29.74 in 10.0 mi West 13.8 mph - N/A   Mostly Cloudy
7:31 AM 26.6 °F 14.7 °F 21.2 °F 80% 29.74 in 10.0 mi WNW 15.0 mph - N/A   Overcast
7:53 AM 26.1 °F 14.0 °F 21.9 °F 84% 29.80 in 10.0 mi WNW 15.0 mph 25.3 mph N/A   Overcast
8:53 AM 28.0 °F 15.7 °F 21.9 °F 78% 29.79 in 10.0 mi WNW 17.3 mph - N/A   Overcast
9:53 AM 28.9 °F 17.3 °F 23.0 °F 78% 29.79 in 10.0 mi WNW 16.1 mph 23.0 mph N/A   Overcast
10:53 AM 30.0 °F 17.2 °F 24.1 °F 79% 29.78 in 7.0 mi WNW 20.7 mph - 0.00 in Snow Light Snow
11:10 AM 30.2 °F 17.1 °F 24.8 °F 80% 29.72 in 8.0 mi WNW 21.9 mph 28.8 mph 0.00 in   Overcast
11:23 AM 30.2 °F 17.1 °F 24.8 °F 80% 29.73 in 10.0 mi WNW 21.9 mph 28.8 mph 0.00 in   Overcast
11:53 AM 32.0 °F 18.6 °F 24.8 °F 75% 29.73 in 10.0 mi WNW 25.3 mph - N/A   Mostly Cloudy
12:45 PM 30.2 °F 17.1 °F 24.8 °F 80% 29.73 in 6.0 mi WNW 21.9 mph - 0.00 in Snow Light Snow
12:53 PM 30.9 °F 18.1 °F 25.0 °F 79% 29.78 in 2.5 mi WNW 21.9 mph - 0.00 in Snow Light Snow
1:00 PM 30.2 °F 17.1 °F 24.8 °F 80% 29.73 in 3.0 mi WNW 21.9 mph - 0.00 in Snow Light Snow
1:32 PM 32.0 °F 19.8 °F 24.8 °F 75% 29.72 in 10.0 mi WNW 20.7 mph 26.5 mph 0.00 in   Overcast
1:53 PM 33.8 °F 21.3 °F 24.8 °F 70% 29.71 in 10.0 mi NW 24.2 mph - N/A   Overcast
2:04 PM 33.8 °F 21.3 °F 24.8 °F 70% 29.72 in 10.0 mi WNW 24.2 mph 32.2 mph N/A   Overcast
2:53 PM 33.1 °F 20.3 °F 25.0 °F 72% 29.77 in 10.0 mi NW 24.2 mph 31.1 mph N/A   Overcast
3:53 PM 33.1 °F 20.9 °F 24.1 °F 70% 29.77 in 10.0 mi WNW 21.9 mph - N/A   Overcast
4:53 PM 33.1 °F 20.9 °F 25.0 °F 72% 29.78 in 10.0 mi NW 21.9 mph - N/A   Overcast
5:33 PM 32.0 °F 20.1 °F 26.6 °F 80% 29.73 in 1.8 mi WNW 19.6 mph - 0.00 in Snow Light Snow
5:42 PM 30.2 °F 17.8 °F 26.6 °F 86% 29.73 in 1.5 mi NW 19.6 mph 28.8 mph 0.00 in Snow Light Snow
5:53 PM 30.9 °F 18.7 °F 28.0 °F 89% 29.80 in 1.5 mi WNW 19.6 mph - 0.00 in Snow Light Snow
6:00 PM 30.2 °F 17.1 °F 28.4 °F 93% 29.74 in 1.8 mi WNW 21.9 mph - 0.00 in Snow Light Snow
6:20 PM 30.2 °F 17.1 °F 28.4 °F 93% 29.74 in 1.2 mi NW 21.9 mph - 0.00 in Snow Light Snow
6:53 PM 30.9 °F 19.4 °F 28.0 °F 89% 29.81 in 1.0 mi NW 17.3 mph - 0.00 in Snow Light Snow
7:24 PM 30.2 °F 18.1 °F 28.4 °F 93% 29.76 in 2.0 mi NW 18.4 mph - 0.00 in Snow Light Snow
7:31 PM 30.2 °F 18.5 °F 28.4 °F 93% 29.76 in 1.8 mi NW 17.3 mph - 0.00 in Snow Light Snow
7:44 PM 30.2 °F 18.9 °F 28.4 °F 93% 29.76 in 2.5 mi WNW 16.1 mph - 0.00 in Snow Light Snow
7:53 PM 30.0 °F 18.7 °F 28.0 °F 92% 29.82 in 3.0 mi NW 16.1 mph - 0.00 in Snow Light Snow
8:44 PM 30.2 °F 18.9 °F 28.4 °F 93% 29.76 in 7.0 mi NW 16.1 mph - 0.01 in   Overcast
8:51 PM 30.2 °F 18.1 °F 26.6 °F 86% 29.77 in 10.0 mi NW 18.4 mph - 0.01 in   Overcast
8:53 PM 30.0 °F 17.9 °F 27.0 °F 88% 29.83 in 10.0 mi NW 18.4 mph - 0.01 in   Overcast
9:05 PM 30.2 °F 18.9 °F 26.6 °F 86% 29.77 in 10.0 mi NW 16.1 mph - N/A   Overcast
9:14 PM 30.2 °F 19.3 °F 26.6 °F 86% 29.78 in 10.0 mi NW 15.0 mph - N/A   Overcast
9:53 PM 30.0 °F 19.5 °F 27.0 °F 88% 29.84 in 10.0 mi NW 13.8 mph - N/A   Mostly Cloudy
10:53 PM 30.0 °F 19.1 °F 26.1 °F 85% 29.85 in 10.0 mi WNW 15.0 mph - N/A   Mostly Cloudy
11:53 PM 28.9 °F 17.7 °F 25.0 °F 85% 29.86 in 10.0 mi NW 15.0 mph - N/A   Mostly Cloudy